Tracking 20093 objects as of 14-Dec-2019
HD Live streaming from Space Station
objects crossing your sky now

FENGYUN 1C DEB

Track FENGYUN 1C DEB now!
10-day predictions


NORAD ID: 31820
Int'l Code: 1999-025CHJ
Perigee: 537.6 km
Apogee: 905.3 km
Inclination: 98.9 °
Period: 99.1 minutes
Semi major axis: 7092 km
RCS: 0.0132 m2 (small)
Launch date: May 10, 1999
Source: People's Republic of China (PRC)
Launch site: Taiyaun Space Center, China (TSC)

Note: This is SATELLITE DEBRIS
aabbcc
Your satellite tracking list
Your tracking list is empty




NASA's NSSDC Master Catalog

Two Line Element Set (TLE):
1 31820U 99025CHJ 19347.67964977 +.00000289 +00000-0 +55937-4 0  9990
2 31820 098.9463 295.8212 0259245 259.4963 097.6930 14.53473331662157
Source of the keplerian elements: AFSPC